,,Stat6,,Stat2,,Stat8,,Stat9,,Stat10,,Wind1,,Wind1,
time,status,PA1M_AVG,status,PR1M_SUM,status,RH1M_AVG,status,SR1M_AVG,status,TA1M_AVG,status,W1dAve1m,status,W1sAve1m,
2005-11-10, 00:00:01,VALID,919.51,VALID,0,VALID,100,VALID,-0.0849042,VALID,19.3579,VALID,130,VALID,0.928329,
2005-11-10, 00:01:00,VALID,919.5,VALID,0,VALID,100,VALID,-0.0679233,VALID,19.351,VALID,110,VALID,0.766406,
2005-11-10, 00:02:00,VALID,919.492,VALID,0,VALID,100,VALID,-0.0509425,VALID,19.3507,VALID,113,VALID,0.785251,
2005-11-10, 00:03:01,VALID,919.474,VALID,0,VALID,100,VALID,-0.0679233,VALID,19.3545,VALID,137,VALID,1.10252,
2005-11-10, 00:04:00,VALID,919.455,VALID,0,VALID,100,VALID,-0.0679233,VALID,19.3443,VALID,115,VALID,0.899528,
2005-11-10, 00:05:00,VALID,919.439,VALID,0,VALID,100,VALID,-0.101885,VALID,19.3445,VALID,116,VALID,1.04052,
2005-11-10, 00:06:00,VALID,919.432,VALID,0,VALID,100,VALID,-0.101885,VALID,19.3383,VALID,111,VALID,0.896019,
2005-11-10, 00:07:01,VALID,919.397,VALID,0,VALID,100,VALID,-0.101885,VALID,19.3388,VALID,117,VALID,0.788154,
2005-11-10, 00:08:01,VALID,919.376,VALID,0,VALID,100,VALID,-0.101885,VALID,19.3159,VALID,119,VALID,1.3834,
2005-11-10, 00:09:00,VALID,919.347,VALID,0,VALID,100,VALID,-0.101885,VALID,19.3189,VALID,115,VALID,1.31898,
2005-11-10, 00:10:00,VALID,919.316,VALID,0,VALID,100,VALID,-0.0849042,VALID,19.3189,VALID,121,VALID,0.909268,
2005-11-10, 00:11:01,VALID,919.29,VALID,0,VALID,100,VALID,-0.0679233,VALID,19.3157,VALID,109,VALID,1.24272,
2005-11-10, 00:12:00,VALID,919.252,VALID,0,VALID,100,VALID,-0.0679233,VALID,19.299,VALID,102,VALID,1.74554,
2005-11-10, 00:13:00,VALID,919.231,VALID,0,VALID,100,VALID,-0.0679233,VALID,19.2998,VALID,99,VALID,1.08485,
2005-11-10, 00:14:00,VALID,919.211,VALID,0,VALID,100,VALID,-0.0849042,VALID,19.2637,VALID,109,VALID,1.37214,
2005-11-10, 00:15:00,VALID,919.201,VALID,0,VALID,100,VALID,-0.0849042,VALID,19.2573,VALID,105,VALID,1.44804,
2005-11-10, 00:16:01,VALID,919.184,VALID,0,VALID,100,VALID,-0.0849042,VALID,19.2511,VALID,101,VALID,0.954985,
2005-11-10, 00:17:00,VALID,919.165,VALID,0,VALID,100,VALID,-0.0679233,VALID,19.2381,VALID,106,VALID,1.15024,
2005-11-10, 00:18:00,VALID,919.143,VALID,0,VALID,100,VALID,-0.101885,VALID,19.2414,VALID,106,VALID,1.34355,
2005-11-10, 00:19:00,VALID,919.129,VALID,0,VALID,100,VALID,-0.0339617,VALID,19.2409,VALID,102,VALID,1.53924,
2005-11-10, 00:20:00,VALID,919.102,VALID,0,VALID,100,VALID,-0.0509425,VALID,19.2732,VALID,99,VALID,1.61364,
2005-11-10, 00:21:00,VALID,919.08,VALID,0,VALID,100,VALID,-0.0509425,VALID,19.2896,VALID,90,VALID,1.30344,
2005-11-10, 00:22:00,VALID,919.063,VALID,0,VALID,100,VALID,-0.0339617,VALID,19.2864,VALID,100,VALID,1.37991,
2005-11-10, 00:23:00,VALID,919.051,VALID,0,VALID,100,VALID,-0.0849042,VALID,19.2873,VALID,94,VALID,1.18572,
2005-11-10, 00:24:00,VALID,919.037,VALID,0,VALID,100,VALID,-0.0679233,VALID,19.2834,VALID,99,VALID,1.3948,
2005-11-10, 00:25:00,VALID,919.037,VALID,0,VALID,100,VALID,-0.0509425,VALID,19.2894,VALID,98,VALID,1.23709,
2005-11-10, 00:26:00,VALID,919.024,VALID,0,VALID,100,VALID,-0.0679233,VALID,19.2933,VALID,100,VALID,1.26451,
2005-11-10, 00:27:00,VALID,919.034,VALID,0,VALID,100,VALID,-0.0339617,VALID,19.2834,VALID,99,VALID,1.38491,
2005-11-10, 00:28:00,VALID,919.055,VALID,0,VALID,100,VALID,-0.0679233,VALID,19.2672,VALID,100,VALID,1.05793,
2005-11-10, 00:29:00,VALID,919.065,VALID,0,VALID,100,VALID,-0.0849042,VALID,19.2702,VALID,104,VALID,1.45368,
2005-11-10, 00:30:01,VALID,919.069,VALID,0,VALID,100,VALID,-0.0509425,VALID,19.2605,VALID,99,VALID,1.54844,
2005-11-10, 00:31:01,VALID,919.088,VALID,0,VALID,100,VALID,-0.0679233,VALID,19.2705,VALID,99,VALID,1.35863,
2005-11-10, 00:32:00,VALID,919.087,VALID,0,VALID,100,VALID,-0.0509425,VALID,19.2739,VALID,99,VALID,1.50572,
2005-11-10, 00:33:00,VALID,919.085,VALID,0,VALID,100,VALID,-0.0339617,VALID,19.2742,VALID,97,VALID,1.32794,
2005-11-10, 00:34:00,VALID,919.09,VALID,0,VALID,100,VALID,0.0339617,VALID,19.2685,VALID,106,VALID,1.2522,
2005-11-10, 00:35:01,VALID,919.101,VALID,0,VALID,100,VALID,0.0679233,VALID,19.2755,VALID,106,VALID,0.985119,
2005-11-10, 00:36:00,VALID,919.097,VALID,0,VALID,100,VALID,0.0339617,VALID,19.2782,VALID,126,VALID,0.991168,
2005-11-10, 00:37:01,VALID,919.105,VALID,0,VALID,100,VALID,0.0679233,VALID,19.2787,VALID,113,VALID,1.00728,
2005-11-10, 00:38:00,VALID,919.119,VALID,0,VALID,100,VALID,0.0339617,VALID,19.2789,VALID,135,VALID,0.844866,
2005-11-10, 00:39:00,VALID,919.113,VALID,0,VALID,100,VALID,0.0679233,VALID,19.2755,VALID,127,VALID,0.878906,
2005-11-10, 00:40:01,VALID,919.12,VALID,0,VALID,100,VALID,0.0509425,VALID,19.2526,VALID,133,VALID,0.861111,
2005-11-10, 00:41:00,VALID,919.141,VALID,0,VALID,100,VALID,0.0509425,VALID,19.2397,VALID,131,VALID,0.845274,
2005-11-10, 00:42:01,VALID,919.141,VALID,0,VALID,100,VALID,0.0679233,VALID,19.2265,VALID,141,VALID,0.762195,
2005-11-10, 00:43:00,VALID,919.144,VALID,0,VALID,100,VALID,0.0339617,VALID,19.2203,VALID,116,VALID,0.680259,
2005-11-10, 00:44:00,VALID,919.136,VALID,0,VALID,100,VALID,0.0509425,VALID,19.2233,VALID,137,VALID,0.668501,
2005-11-10, 00:45:01,VALID,919.123,VALID,0,VALID,100,VALID,0.0679233,VALID,19.2233,VALID,121,VALID,1.02943,
2005-11-10, 00:46:00,VALID,919.112,VALID,0,VALID,100,VALID,0.0169808,VALID,19.2238,VALID,106,VALID,0.955305,
2005-11-10, 00:47:01,VALID,919.095,VALID,0,VALID,100,VALID,0.0169808,VALID,19.2302,VALID,110,VALID,0.991787,
2005-11-10, 00:48:00,VALID,919.074,VALID,0,VALID,100,VALID,0,VALID,19.224,VALID,126,VALID,1.15898,
2005-11-10, 00:49:00,VALID,919.049,VALID,0,VALID,100,VALID,-0.0849042,VALID,19.2354,VALID,105,VALID,1.14311,
2005-11-10, 00:50:00,VALID,919.037,VALID,0,VALID,100,VALID,-0.0509425,VALID,19.2125,VALID,107,VALID,1.3125,
2005-11-10, 00:51:00,VALID,919.003,VALID,0,VALID,100,VALID,-0.0509425,VALID,19.2024,VALID,114,VALID,1.76903,
2005-11-10, 00:52:00,VALID,918.992,VALID,0,VALID,100,VALID,-0.0339617,VALID,19.2158,VALID,111,VALID,1.68415,
2005-11-10, 00:53:00,VALID,918.975,VALID,0,VALID,100,VALID,-0.0339617,VALID,19.2183,VALID,107,VALID,1.36923,
2005-11-10, 00:54:00,VALID,918.969,VALID,0,VALID,100,VALID,0,VALID,19.2354,VALID,103,VALID,1.67387,
2005-11-10, 00:55:00,VALID,918.962,VALID,0,VALID,100,VALID,-0.0339617,VALID,19.2411,VALID,97,VALID,1.47842,
2005-11-10, 00:56:00,VALID,918.954,VALID,0,VALID,100,VALID,-0.0679233,VALID,19.2379,VALID,102,VALID,1.05369,
2005-11-10, 00:57:00,VALID,918.943,VALID,0,VALID,100,VALID,-0.0849042,VALID,19.2379,VALID,112,VALID,0.914595,
2005-11-10, 00:58:01,VALID,918.932,VALID,0,VALID,100,VALID,-0.0169808,VALID,19.2416,VALID,124,VALID,0.716546,
2005-11-10, 00:59:01,VALID,918.928,VALID,0,VALID,100,VALID,-0.0509425,VALID,19.2384,VALID,130,VALID,0.941584,
2005-11-10, 01:00:01,VALID,918.926,VALID,0,VALID,100,VALID,-0.0509425,VALID,19.2282,VALID,145,VALID,0.918403,
2005-11-10, 01:01:00,VALID,918.895,VALID,0,VALID,100,VALID,-0.0339617,VALID,19.2347,VALID,142,VALID,0.537388,
2005-11-10, 01:02:00,VALID,918.889,VALID,0,VALID,100,VALID,-0.0339617,VALID,19.2252,VALID,133,VALID,0.514672,
2005-11-10, 01:03:00,VALID,918.863,VALID,0,VALID,100,VALID,-0.0679233,VALID,19.1931,VALID,144,VALID,0.683984,
2005-11-10, 01:04:01,VALID,918.848,VALID,0,VALID,100,VALID,0.0339617,VALID,19.1562,VALID,135,VALID,0.689977,
2005-11-10, 01:05:00,VALID,918.828,VALID,0,VALID,100,VALID,0.0509425,VALID,19.1236,VALID,135,VALID,0.714164,
2005-11-10, 01:06:00,VALID,918.817,VALID,0,VALID,100,VALID,0.0509425,VALID,19.1008,VALID,134,VALID,0.909961,
2005-11-10, 01:07:01,VALID,918.791,VALID,0,VALID,100,VALID,0.0339617,VALID,19.0819,VALID,136,VALID,0.888207,
2005-11-10, 01:08:01,VALID,918.776,VALID,0,VALID,100,VALID,0.0509425,VALID,19.0722,VALID,126,VALID,0.559524,
2005-11-10, 01:09:00,VALID,918.755,VALID,0,VALID,100,VALID,0.0339617,VALID,19.0562,VALID,90,VALID,0.631747,
2005-11-10, 01:10:00,VALID,918.724,VALID,0,VALID,100,VALID,0.0509425,VALID,19.0329,VALID,89,VALID,0.70348,
2005-11-10, 01:11:00,VALID,918.7,VALID,0,VALID,100,VALID,0.0339617,VALID,19.0172,VALID,106,VALID,0.844238,
2005-11-10, 01:12:01,VALID,918.658,VALID,0,VALID,100,VALID,0.0509425,VALID,19.0336,VALID,106,VALID,0.934659,
2005-11-10, 01:13:00,VALID,918.628,VALID,0,VALID,100,VALID,0.0339617,VALID,19.0401,VALID,104,VALID,1.1064,
2005-11-10, 01:14:00,VALID,918.606,VALID,0,VALID,100,VALID,0.0679233,VALID,19.0366,VALID,102,VALID,0.776563,
2005-11-10, 01:15:00,VALID,918.573,VALID,0,VALID,100,VALID,0.0509425,VALID,19.0597,VALID,116,VALID,1.36937,
2005-11-10, 01:16:00,VALID,918.56,VALID,0,VALID,100,VALID,0.0169808,VALID,19.0659,VALID,114,VALID,0.692224,
2005-11-10, 01:17:00,VALID,918.538,VALID,0,VALID,100,VALID,0.0339617,VALID,19.0722,VALID,111,VALID,0.995617,
2005-11-10, 01:18:00,VALID,918.534,VALID,0,VALID,100,VALID,0.0169808,VALID,19.0756,VALID,130,VALID,0.821007,
2005-11-10, 01:19:01,VALID,918.514,VALID,0,VALID,100,VALID,0.0509425,VALID,19.0856,VALID,116,VALID,0.989211,
2005-11-10, 01:20:00,VALID,918.487,VALID,0,VALID,100,VALID,0.0169808,VALID,19.0821,VALID,121,VALID,1.44112,
2005-11-10, 01:21:01,VALID,918.486,VALID,0,VALID,100,VALID,0.0339617,VALID,19.1047,VALID,123,VALID,1.51617,
2005-11-10, 01:22:00,VALID,918.466,VALID,0,VALID,100,VALID,0.0169808,VALID,19.1343,VALID,116,VALID,1.15116,
2005-11-10, 01:23:01,VALID,918.449,VALID,0,VALID,100,VALID,0.0169808,VALID,19.1375,VALID,123,VALID,1.32884,
2005-11-10, 01:24:01,VALID,918.447,VALID,0,VALID,100,VALID,0.0339617,VALID,19.1631,VALID,125,VALID,1.27202,
2005-11-10, 01:25:01,VALID,918.437,VALID,0,VALID,100,VALID,0.0679233,VALID,19.1755,VALID,133,VALID,1.48903,
2005-11-10, 01:26:01,VALID,918.424,VALID,0,VALID,100,VALID,0.0169808,VALID,19.1894,VALID,142,VALID,1.30522,
2005-11-10, 01:27:01,VALID,918.425,VALID,0,VALID,100,VALID,0.0339617,VALID,19.1855,VALID,138,VALID,0.976563,
2005-11-10, 01:28:01,VALID,918.409,VALID,0,VALID,100,VALID,0.0339617,VALID,19.1758,VALID,133,VALID,1.50692,
2005-11-10, 01:29:00,VALID,918.406,VALID,0,VALID,100,VALID,0.0509425,VALID,19.1596,VALID,139,VALID,0.874628,
2005-11-10, 01:30:01,VALID,918.401,VALID,0,VALID,100,VALID,0.0509425,VALID,19.1402,VALID,125,VALID,1.08352,
2005-11-10, 01:31:01,VALID,918.401,VALID,0,VALID,100,VALID,0.0509425,VALID,19.1112,VALID,124,VALID,1.1237,
2005-11-10, 01:32:01,VALID,918.39,VALID,0,VALID,100,VALID,0.0679233,VALID,19.0848,VALID,118,VALID,1.00408,
2005-11-10, 01:33:01,VALID,918.381,VALID,0,VALID,100,VALID,0.0169808,VALID,19.0821,VALID,106,VALID,1.00724,
2005-11-10, 01:34:01,VALID,918.363,VALID,0,VALID,100,VALID,0.0509425,VALID,19.0692,VALID,122,VALID,1.04918,
2005-11-10, 01:35:00,VALID,918.365,VALID,0,VALID,100,VALID,0.0339617,VALID,19.0759,VALID,105,VALID,1.32195,
2005-11-10, 01:36:01,VALID,918.352,VALID,0,VALID,100,VALID,0.0679233,VALID,19.0528,VALID,104,VALID,1.58761,
2005-11-10, 01:37:01,VALID,918.326,VALID,0,VALID,100,VALID,0.0339617,VALID,19.0726,VALID,112,VALID,1.38601,
2005-11-10, 01:38:01,VALID,918.299,VALID,0,VALID,100,VALID,0.0509425,VALID,19.0761,VALID,133,VALID,0.908736,
2005-11-10, 01:39:01,VALID,918.297,VALID,0,VALID,100,VALID,0.0339617,VALID,19.0761,VALID,112,VALID,1.30208,
2005-11-10, 01:40:01,VALID,918.277,VALID,0,VALID,100,VALID,0.0169808,VALID,19.0533,VALID,108,VALID,0.869731,
2005-11-10, 01:41:01,VALID,918.253,VALID,0,VALID,100,VALID,0.0339617,VALID,19.0466,VALID,126,VALID,0.863372,
2005-11-10, 01:42:01,VALID,918.231,VALID,0,VALID,100,VALID,0.0679233,VALID,19.0334,VALID,107,VALID,1.39789,
2005-11-10, 01:43:01,VALID,918.219,VALID,0,VALID,100,VALID,0.0849042,VALID,19.0371,VALID,110,VALID,1.01079,
2005-11-10, 01:44:01,VALID,918.202,VALID,0,VALID,100,VALID,0.0509425,VALID,19.0371,VALID,109,VALID,1.27344,
2005-11-10, 01:45:01,VALID,918.188,VALID,0,VALID,100,VALID,0.0509425,VALID,19.0306,VALID,106,VALID,1.29249,
2005-11-10, 01:46:01,VALID,918.183,VALID,0,VALID,100,VALID,0.0509425,VALID,19.0277,VALID,107,VALID,1.07187,
2005-11-10, 01:47:01,VALID,918.174,VALID,0,VALID,100,VALID,0.0169808,VALID,19.0147,VALID,98,VALID,1.26381,
2005-11-10, 01:48:00,VALID,918.182,VALID,0,VALID,100,VALID,0.0169808,VALID,19.0083,VALID,89,VALID,0.750727,
2005-11-10, 01:49:01,VALID,918.172,VALID,0,VALID,100,VALID,0.0509425,VALID,18.9983,VALID,93,VALID,0.852734,
2005-11-10, 01:50:01,VALID,918.16,VALID,0,VALID,100,VALID,0.0509425,VALID,18.9824,VALID,103,VALID,1.29249,
2005-11-10, 01:51:01,VALID,918.161,VALID,0,VALID,100,VALID,0.0849042,VALID,18.9757,VALID,93,VALID,0.81593,
2005-11-10, 01:52:01,VALID,918.152,VALID,0,VALID,100,VALID,0.0339617,VALID,18.976,VALID,101,VALID,1.18008,
2005-11-10, 01:53:01,VALID,918.137,VALID,0,VALID,100,VALID,0.0339617,VALID,18.9953,VALID,80,VALID,1.05806,
2005-11-10, 01:54:01,VALID,918.119,VALID,0,VALID,100,VALID,0.0509425,VALID,19.005,VALID,74,VALID,0.813802,
2005-11-10, 01:55:01,VALID,918.111,VALID,0,VALID,100,VALID,0.0169808,VALID,18.9986,VALID,65,VALID,1.04116,
2005-11-10, 01:56:01,VALID,918.101,VALID,0,VALID,100,VALID,0.0339617,VALID,18.9734,VALID,55,VALID,1.41962,
2005-11-10, 01:57:01,VALID,918.087,VALID,0,VALID,100,VALID,0.0849042,VALID,18.9305,VALID,61,VALID,1.25863,
2005-11-10, 01:58:01,VALID,918.08,VALID,0,VALID,100,VALID,0.0509425,VALID,18.9178,VALID,78,VALID,1.03466,
2005-11-10, 01:59:01,VALID,918.05,VALID,0,VALID,100,VALID,0.0339617,VALID,18.8887,VALID,77,VALID,1.18981,
2005-11-10, 02:00:01,VALID,918.033,VALID,0,VALID,100,VALID,0.0169808,VALID,18.8659,VALID,84,VALID,1.27983,
2005-11-10, 02:01:01,VALID,917.997,VALID,0,VALID,100,VALID,0.0339617,VALID,18.8731,VALID,91,VALID,1.09299,
2005-11-10, 02:02:01,VALID,917.988,VALID,0,VALID,100,VALID,0.0339617,VALID,18.8532,VALID,87,VALID,1.28397,
2005-11-10, 02:03:01,VALID,917.974,VALID,0,VALID,100,VALID,0.0169808,VALID,18.8504,VALID,101,VALID,1.18496,
2005-11-10, 02:04:01,VALID,917.959,VALID,0,VALID,100,VALID,0,VALID,18.8532,VALID,103,VALID,1.33321,
2005-11-10, 02:05:01,VALID,917.926,VALID,0,VALID,100,VALID,0.0169808,VALID,18.886,VALID,107,VALID,0.951126,
2005-11-10, 02:06:01,VALID,917.922,VALID,0,VALID,100,VALID,0.0169808,VALID,18.8823,VALID,133,VALID,1.16692,
2005-11-10, 02:07:01,VALID,917.904,VALID,0,VALID,100,VALID,0.0679233,VALID,18.8984,VALID,138,VALID,1.26451,
2005-11-10, 02:08:01,VALID,917.882,VALID,0,VALID,100,VALID,0.0509425,VALID,18.9076,VALID,134,VALID,0.975446,
2005-11-10, 02:09:01,VALID,917.863,VALID,0,VALID,100,VALID,0.0339617,VALID,18.9017,VALID,129,VALID,0.736793,
2005-11-10, 02:10:01,VALID,917.855,VALID,0,VALID,100,VALID,0,VALID,18.9046,VALID,134,VALID,0.552148,
2005-11-10, 02:11:01,VALID,917.843,VALID,0,VALID,100,VALID,0.0509425,VALID,18.9017,VALID,119,VALID,0.348323,
2005-11-10, 02:12:01,VALID,917.827,VALID,0,VALID,100,VALID,0.0509425,VALID,18.8758,VALID,148,VALID,0.234947,
2005-11-10, 02:13:00,VALID,917.809,VALID,0,VALID,100,VALID,0.0509425,VALID,18.847,VALID,148,VALID,0.217076,
2005-11-10, 02:14:00,VALID,917.8,VALID,0,VALID,100,VALID,0.0339617,VALID,18.801,VALID,182,VALID,0.592416,
2005-11-10, 02:15:00,VALID,917.784,VALID,0,VALID,100,VALID,0.0169808,VALID,18.7923,VALID,200,VALID,0.417873,
2005-11-10, 02:16:00,VALID,917.784,VALID,0,VALID,100,VALID,0.0509425,VALID,18.7496,VALID,213,VALID,0.350868,
2005-11-10, 02:17:00,VALID,917.772,VALID,0,VALID,100,VALID,0.0509425,VALID,18.7371,VALID,214,VALID,0.418826,
2005-11-10, 02:18:00,VALID,917.747,VALID,0,VALID,100,VALID,0.0679233,VALID,18.7141,VALID,224,VALID,0.637228,
2005-11-10, 02:19:00,VALID,917.735,VALID,0,VALID,100,VALID,0.0679233,VALID,18.6813,VALID,233,VALID,0.490189,
2005-11-10, 02:20:00,VALID,917.723,VALID,0,VALID,100,VALID,0.0509425,VALID,18.6654,VALID,233,VALID,0.22218,
2005-11-10, 02:21:00,VALID,917.72,VALID,0,VALID,100,VALID,0.0509425,VALID,18.6594,VALID,229,VALID,0.377976,
2005-11-10, 02:22:00,VALID,917.711,VALID,0,VALID,100,VALID,0.0509425,VALID,18.6427,VALID,226,VALID,0.287791,
2005-11-10, 02:23:00,VALID,917.707,VALID,0,VALID,100,VALID,0.0679233,VALID,18.6492,VALID,219,VALID,0.558503,
2005-11-10, 02:24:00,VALID,917.693,VALID,0,VALID,100,VALID,0.0339617,VALID,18.6395,VALID,235,VALID,0.170703,
2005-11-10, 02:25:00,VALID,917.696,VALID,0,VALID,100,VALID,0,VALID,18.6303,VALID,235,VALID,0.0236192,
2005-11-10, 02:26:00,VALID,917.689,VALID,0,VALID,100,VALID,0.0339617,VALID,18.6109,VALID,238,VALID,0.157522,
2005-11-10, 02:27:00,VALID,917.681,VALID,0,VALID,100,VALID,0.0169808,VALID,18.5657,VALID,242,VALID,0.356286,
2005-11-10, 02:28:00,VALID,917.674,VALID,0,VALID,100,VALID,0.0509425,VALID,18.5398,VALID,298,VALID,0.466388,
2005-11-10, 02:29:00,VALID,917.678,VALID,0,VALID,100,VALID,0,VALID,18.5364,VALID,312,VALID,0.38157,
2005-11-10, 02:30:00,VALID,917.675,VALID,0,VALID,100,VALID,0.0339617,VALID,18.5625,VALID,311,VALID,0.412674,
2005-11-10, 02:31:00,VALID,917.683,VALID,0,VALID,100,VALID,0.0169808,VALID,18.5818,VALID,307,VALID,0.348586,
2005-11-10, 02:32:00,VALID,917.694,VALID,0,VALID,100,VALID,0.0169808,VALID,18.6049,VALID,307,VALID,0.166424,
2005-11-10, 02:33:00,VALID,917.698,VALID,0,VALID,100,VALID,0.0169808,VALID,18.6012,VALID,307,VALID,0.338477,
2005-11-10, 02:34:00,VALID,917.681,VALID,0,VALID,100,VALID,-0.0679233,VALID,18.5962,VALID,307,VALID,0.50799,
2005-11-10, 02:35:00,VALID,917.698,VALID,0,VALID,100,VALID,-0.0339617,VALID,18.5731,VALID,307,VALID,0.412326,
2005-11-10, 02:36:00,VALID,917.688,VALID,0,VALID,100,VALID,-0.0339617,VALID,18.5731,VALID,307,VALID,0.409299,
2005-11-10, 02:37:00,VALID,917.689,VALID,0,VALID,100,VALID,0.0169808,VALID,18.5881,VALID,307,VALID,0.374442,
2005-11-10, 02:38:00,VALID,917.686,VALID,0,VALID,100,VALID,0.0169808,VALID,18.5945,VALID,307,VALID,0.00872093,
2005-11-10, 02:39:00,VALID,917.675,VALID,0,VALID,100,VALID,0.0169808,VALID,18.5525,VALID,307,VALID,0.0385174,
2005-11-10, 02:40:00,VALID,917.655,VALID,0,VALID,100,VALID,0.0339617,VALID,18.5237,VALID,307,VALID,0.00351562,
2005-11-10, 02:41:00,VALID,917.647,VALID,0,VALID,100,VALID,0.0509425,VALID,18.5068,VALID,307,VALID,0.112165,
2005-11-10, 02:42:00,VALID,917.642,VALID,0,VALID,100,VALID,0.0169808,VALID,18.5435,VALID,307,VALID,0.0662202,
2005-11-10, 02:43:00,VALID,917.64,VALID,0,VALID,100,VALID,0.0509425,VALID,18.5175,VALID,306,VALID,0.310547,
2005-11-10, 02:44:00,VALID,917.647,VALID,0,VALID,100,VALID,0,VALID,18.4628,VALID,206,VALID,0.476563,
2005-11-10, 02:45:00,VALID,917.64,VALID,0,VALID,100,VALID,0.0339617,VALID,18.4298,VALID,162,VALID,0.235518,
2005-11-10, 02:46:00,VALID,917.631,VALID,0,VALID,100,VALID,0.0339617,VALID,18.4109,VALID,162,VALID,0.179501,
2005-11-10, 02:47:00,VALID,917.631,VALID,0,VALID,100,VALID,0.0509425,VALID,18.3943,VALID,154,VALID,0.332698,
2005-11-10, 02:48:00,VALID,917.634,VALID,0,VALID,100,VALID,0.0339617,VALID,18.4296,VALID,78,VALID,0.79851,
2005-11-10, 02:49:00,VALID,917.62,VALID,0,VALID,100,VALID,-0.0339617,VALID,18.4312,VALID,54,VALID,0.950838,
2005-11-10, 02:50:00,VALID,917.593,VALID,0,VALID,100,VALID,-0.0679233,VALID,18.4088,VALID,57,VALID,0.64939,
2005-11-10, 02:51:00,VALID,917.567,VALID,0,VALID,100,VALID,-0.0849042,VALID,18.4543,VALID,106,VALID,1.05796,
2005-11-10, 02:52:00,VALID,917.557,VALID,0,VALID,100,VALID,-0.0169808,VALID,18.4863,VALID,96,VALID,0.856357,
2005-11-10, 02:53:00,VALID,917.536,VALID,0,VALID,100,VALID,-0.0679233,VALID,18.4926,VALID,109,VALID,1.11465,
2005-11-10, 02:54:00,VALID,917.529,VALID,0,VALID,100,VALID,-0.0339617,VALID,18.5025,VALID,138,VALID,0.672075,
2005-11-10, 02:55:00,VALID,917.505,VALID,0,VALID,100,VALID,-0.0339617,VALID,18.5281,VALID,142,VALID,1.19201,
2005-11-10, 02:56:00,VALID,917.497,VALID,0,VALID,100,VALID,-0.0679233,VALID,18.5606,VALID,124,VALID,1.54587,
2005-11-10, 02:57:00,VALID,917.504,VALID,0,VALID,100,VALID,-0.101885,VALID,18.5738,VALID,137,VALID,1.38081,
2005-11-10, 02:58:00,VALID,917.489,VALID,0,VALID,100,VALID,-0.0509425,VALID,18.5706,VALID,141,VALID,1.28715,
2005-11-10, 02:59:00,VALID,917.507,VALID,0,VALID,100,VALID,-0.0509425,VALID,18.5574,VALID,144,VALID,1.60671,
2005-11-10, 03:00:00,VALID,917.505,VALID,0,VALID,100,VALID,-0.0509425,VALID,18.5611,VALID,139,VALID,1.60254,
2005-11-10, 03:01:00,VALID,917.52,VALID,0,VALID,100,VALID,-0.0849042,VALID,18.5544,VALID,136,VALID,1.53743,
2005-11-10, 03:02:00,VALID,917.523,VALID,0,VALID,100,VALID,-0.101885,VALID,18.5479,VALID,131,VALID,1.644,
2005-11-10, 03:03:00,VALID,917.539,VALID,0,VALID,100,VALID,-0.0509425,VALID,18.5413,VALID,133,VALID,1.92551,
2005-11-10, 03:04:00,VALID,917.56,VALID,0,VALID,100,VALID,-0.0509425,VALID,18.5606,VALID,133,VALID,1.4092,
2005-11-10, 03:05:00,VALID,917.562,VALID,0,VALID,100,VALID,-0.0679233,VALID,18.5869,VALID,130,VALID,1.65004,
2005-11-10, 03:06:00,VALID,917.579,VALID,0,VALID,100,VALID,-0.0509425,VALID,18.6123,VALID,135,VALID,1.60174,
2005-11-10, 03:07:00,VALID,917.595,VALID,0,VALID,100,VALID,-0.0679233,VALID,18.6384,VALID,128,VALID,1.40904,
2005-11-10, 03:08:00,VALID,917.599,VALID,0,VALID,100,VALID,-0.0169808,VALID,18.6799,VALID,134,VALID,1.79897,
2005-11-10, 03:09:00,VALID,917.619,VALID,0,VALID,100,VALID,-0.0339617,VALID,18.7122,VALID,119,VALID,1.03281,
2005-11-10, 03:10:00,VALID,917.617,VALID,0,VALID,100,VALID,-0.0339617,VALID,18.7323,VALID,120,VALID,0.947917,
2005-11-10, 03:11:00,VALID,917.615,VALID,0,VALID,100,VALID,-0.0339617,VALID,18.7448,VALID,123,VALID,1.11828,
2005-11-10, 03:12:00,VALID,917.608,VALID,0,VALID,100,VALID,-0.0339617,VALID,18.7478,VALID,130,VALID,1.83142,
2005-11-10, 03:13:00,VALID,917.607,VALID,0,VALID,100,VALID,-0.0339617,VALID,18.7482,VALID,135,VALID,1.43874,
2005-11-10, 03:14:00,VALID,917.595,VALID,0,VALID,100,VALID,-0.0339617,VALID,18.7351,VALID,126,VALID,1.39045,
2005-11-10, 03:15:00,VALID,917.595,VALID,0,VALID,100,VALID,-0.0339617,VALID,18.6963,VALID,125,VALID,1.13034,
2005-11-10, 03:16:00,VALID,917.596,VALID,0,VALID,100,VALID,-0.0169808,VALID,18.6834,VALID,124,VALID,1.42378,
2005-11-10, 03:17:00,VALID,917.602,VALID,0,VALID,100,VALID,0,VALID,18.6931,VALID,123,VALID,1.0809,
2005-11-10, 03:18:00,VALID,917.594,VALID,0,VALID,100,VALID,-0.0679233,VALID,18.7097,VALID,130,VALID,1.33947,
2005-11-10, 03:19:00,VALID,917.598,VALID,0,VALID,100,VALID,-0.0339617,VALID,18.7099,VALID,106,VALID,1.30905,
2005-11-10, 03:20:00,VALID,917.593,VALID,0,VALID,100,VALID,-0.0169808,VALID,18.6993,VALID,115,VALID,0.97476,
2005-11-10, 03:21:00,VALID,917.59,VALID,0,VALID,100,VALID,-0.0339617,VALID,18.7028,VALID,113,VALID,1.28958,
2005-11-10, 03:22:00,VALID,917.602,VALID,0,VALID,100,VALID,-0.0339617,VALID,18.7189,VALID,123,VALID,0.899148,
2005-11-10, 03:23:00,VALID,917.627,VALID,0,VALID,100,VALID,-0.0509425,VALID,18.7348,VALID,121,VALID,0.952009,
2005-11-10, 03:24:00,VALID,917.633,VALID,0,VALID,100,VALID,-0.0509425,VALID,18.7577,VALID,110,VALID,1.12463,
2005-11-10, 03:25:00,VALID,917.623,VALID,0,VALID,100,VALID,-0.0339617,VALID,18.7736,VALID,114,VALID,1.32617,
2005-11-10, 03:26:00,VALID,917.61,VALID,0,VALID,100,VALID,-0.0509425,VALID,18.8029,VALID,109,VALID,1.61161,
2005-11-10, 03:27:00,VALID,917.582,VALID,0,VALID,100,VALID,-0.0679233,VALID,18.8516,VALID,120,VALID,1.56194,
2005-11-10, 03:28:00,VALID,917.565,VALID,0,VALID,100,VALID,-0.0169808,VALID,18.8809,VALID,132,VALID,1.35195,
2005-11-10, 03:29:00,VALID,917.545,VALID,0,VALID,100,VALID,-0.0339617,VALID,18.8867,VALID,131,VALID,1.68006,
2005-11-10, 03:30:00,VALID,917.548,VALID,0,VALID,100,VALID,-0.0339617,VALID,18.919,VALID,125,VALID,1.56214,
2005-11-10, 03:31:00,VALID,917.551,VALID,0,VALID,100,VALID,0,VALID,18.916,VALID,110,VALID,1.24428,
2005-11-10, 03:32:00,VALID,917.546,VALID,0,VALID,100,VALID,-0.0509425,VALID,18.9098,VALID,107,VALID,1.66806,
2005-11-10, 03:33:00,VALID,917.545,VALID,0,VALID,100,VALID,-0.0169808,VALID,18.8805,VALID,112,VALID,1.46146,
2005-11-10, 03:34:00,VALID,917.536,VALID,0,VALID,100,VALID,-0.0679233,VALID,18.8678,VALID,121,VALID,1.28159,
2005-11-10, 03:35:00,VALID,917.525,VALID,0,VALID,100,VALID,-0.0679233,VALID,18.8646,VALID,125,VALID,1.42805,
2005-11-10, 03:36:00,VALID,917.52,VALID,0,VALID,100,VALID,-0.0509425,VALID,18.8643,VALID,122,VALID,1.39167,
2005-11-10, 03:37:00,VALID,917.512,VALID,0,VALID,100,VALID,-0.0509425,VALID,18.8611,VALID,113,VALID,1.48981,
2005-11-10, 03:38:00,VALID,917.494,VALID,0,VALID,100,VALID,-0.0849042,VALID,18.8641,VALID,130,VALID,1.14299,
2005-11-10, 03:39:00,VALID,917.5,VALID,0,VALID,100,VALID,-0.0679233,VALID,18.8678,VALID,113,VALID,1.31851,